Location: Crab Orchard
(37.7292°N, 88.8042°W)
Time: 19:22:05
(UTC+00:00)

Daily predictions for brighter satellites

Satellite Brightness Start Highest point End
(mag) Time Altitude Azimuth Time Altitude Azimuth Time Altitude Azimuth
Cosmos 676 Rocket 4.5 12:00:46 10° NNW 12:05:39 40° WSW 12:10:33 10° S
STARLINK 1044 4.3 12:04:06 10° NNW 12:06:36 27° NE 12:09:07 10° E
Cosmos 1869 Rocket 4.1 12:05:44 10° SW 12:09:39 34° WNW 12:13:38 10° NNW
Meteor 1-18 Rocket 4.4 12:11:11 10° NNW 12:16:32 50° W 12:21:53 10° SSW
FALCON 9 DEB 3.0 12:14:55 10° NW 12:17:11 44° NE 12:19:27 10° ESE
Okean 3 3.5 12:14:24 10° N 12:18:36 85° E 12:22:47 10° S
PSLV R/B 3.4 12:19:53 11° WNW 12:22:01 34° N 12:24:19 10° ENE
Cosmos 2263 Rocket 2.9 12:17:33 10° WSW 12:22:24 30° WNW 12:27:15 10° N
FALCON 9 DEB 2.6 12:21:12 10° NW 12:23:32 55° NE 12:25:52 10° ESE
Cosmos 1346 Rocket 3.3 12:20:57 10° SW 12:24:30 35° WNW 12:28:04 10° N
CZ-3 Stage 3 4.2 12:08:29 10° WSW 12:26:06 48° S 12:30:01 10° ESE
IRS-1C Rocket 4.1 12:21:27 10° NNE 12:26:44 81° WNW 12:31:58 10° SSW
USA 267 3.4 22:56:36 10° ESE 23:02:59 60° NE 23:09:24 10° NW
Cosmos 332 Rocket 4.4 22:58:32 10° NNW 23:03:19 63° WSW 23:08:04 10° S
Cosmos 2333 Rocket 2.7 22:57:53 10° SSW 23:03:33 63° WNW 23:09:16 10° NNE
OAO 3 Rocket 4.0 23:01:49 10° SW 23:06:14 42° SSE 23:10:44 10° E
ERBS 2.2 23:03:14 10° NW 23:06:35 73° NE 23:09:55 10° SE
ATLAS 3B R/B 2.9 23:00:08 10° NNW 23:06:54 83° WSW 23:13:51 10° SSE
Cosmos 2237 Rocket 2.5 23:04:25 10° S 23:09:54 52° ESE 23:15:25 10° NNE
AQUARIUS 4.3 23:06:43 10° SSE 23:11:03 50° ENE 23:15:25 10° N
Atlas Centaur 2 4.0 23:04:21 10° WSW 23:11:16 44° S 23:19:08 10° ESE
Cosmos 1340 3.9 23:08:39 10° NNW 23:12:16 46° W 23:15:53 10° SSW
Cosmos 1500 3.5 23:09:35 10° N 23:13:10 41° E 23:16:43 10° SSE
YAOGAN 6 4.2 23:12:11 10° ESE 23:14:11 15° ENE 23:16:12 10° NNE
STARLINK-29 4.1 23:13:59 10° SSW 23:17:11 33° SE 23:20:06 12° ENE
Meteor 1-27 Rocket 3.8 23:13:12 10° S 23:18:48 65° E 23:24:34 10° NNE
Meteor 1-11 Rocket 3.9 23:12:56 10° N 23:18:50 59° ENE 23:24:39 10° SSE
H-2A R/B 2.6 23:16:17 10° SSE 23:19:57 61° ENE 23:23:36 10° N
BREEZE-M DEB (TANK) 4.3 23:18:27 10° WSW 23:23:00 68° NNW 23:40:46 12° ENE
Cosmos 1908 Rocket 4.5 23:20:26 10° NNE 23:24:09 26° ENE 23:27:49 10° SE
CORIOLIS 4.2 23:19:06 10° SSE 23:24:28 66° ENE 23:29:53 10° N
Cosmos 2219 Rocket 3.4 23:20:03 10° SW 23:25:19 42° WNW 23:30:39 10° N
Cosmos 1536 3.3 23:21:51 10° N 23:25:36 37° E 23:29:18 10° SSE
NOSS 2 (A) 4.1 23:23:44 10° NNW 23:26:02 46° NE 23:28:20 10° SE
COSMO-SKYMED 1 3.3 23:23:26 10° NNE 23:27:20 32° E 23:31:13 10° SSE
YAOGAN 1 3.9 23:28:44 10° ESE 23:31:40 18° ENE 23:34:36 10° NNE
CZ-4 R/B 2.5 23:29:39 10° ESE 23:32:37 21° ENE 23:35:33 10° NNE
OAO 2 Rocket 3.7 23:27:53 10° WSW 23:32:47 58° S 23:37:08 14° E
Lacrosse 5 rocket 2.9 23:31:27 10° WSW 23:35:18 31° NW 23:39:00 10° NNE
SL-8 R/B 4.5 23:32:27 10° WNW 23:37:10 55° SW 23:41:52 10° SE
Cosmos 2251 Rocket 3.9 23:32:32 10° SSW 23:37:49 68° WNW 23:43:06 10° NNE
Feng Yun 1-1 Rocket 4.4 23:33:07 10° S 23:38:32 77° WSW 23:43:55 10° NNW
Cosmos 1980 3.8 23:34:51 10° SSW 23:40:29 80° WNW 23:46:10 10° NNE
ISS -2.8 23:38:42 10° NNW 23:41:42 29° NNE 23:42:51 23° ENE
Okean 1-7 3.6 23:39:27 10° SSE 23:43:22 35° E 23:46:52 12° NNE
Okean 1 4.5 23:41:28 10° SE 23:44:34 22° E 23:45:06 21° ENE
SL-4 R/B 4.1 23:42:59 10° NW 23:45:14 15° NNW 23:47:31 10° NNE
STARLINK-60 3.3 23:42:41 10° SW 23:46:01 67° NW 23:48:02 22° NE
Nadezhda 4 Rocket 4.2 23:41:18 10° S 23:47:37 77° W 23:53:57 10° N
CSL-04 Rocket 4.3 23:44:15 10° SE 23:48:51 31° ENE 23:53:26 10° N
Cosmos 1733 Rocket 3.8 23:45:22 10° NNW 23:49:39 55° W 23:53:57 10° S
Cosmos 1263 4.1 23:49:53 10° S 23:53:08 89° WSW 23:55:51 12° N
Cosmos 614 Rocket 4.4 23:49:54 10° S 23:54:37 39° ESE 23:57:25 22° NE
